This is the latest recevied weather packets stored in our database for station/object N2XP-3. If no packets are shown the sender has not sent any weather packets the latest 10 day(s).
| Time | Temp. | Humidity | Pressure | Rain* | Wind** | Luminosity | Snow |
|---|---|---|---|---|---|---|---|
| 1777657214 | 18.33° C | 49% | 1009.1 hPa | 0 mm | 1.79 m/s, 273° | - | - |
| 1777657027 | 17.78° C | 48% | 1009.1 hPa | 0 mm | 1.34 m/s, 28° | - | - |
| 1777656915 | 17.78° C | 48% | 1009.1 hPa | 0 mm | 1.34 m/s, 28° | - | - |
| 1777656013 | 17.22° C | 47% | 1009.1 hPa | 0 mm | 0.89 m/s, 308° | - | - |
| 1777655547 | 18.33° C | 48% | 1009.3 hPa | 0 mm | 2.24 m/s, 263° | - | - |
| 1777655408 | 18.33° C | 48% | 1009.3 hPa | 0 mm | 2.24 m/s, 263° | - | - |
| 1777654612 | 17.22° C | 50% | 1009.4 hPa | 0 mm | 1.79 m/s, 277° | - | - |
| 1777654312 | 17.22° C | 50% | 1009.5 hPa | 0 mm | 1.34 m/s, 257° | - | - |
| 1777653598 | 16.67° C | 50% | 1009.7 hPa | 0 mm | 1.34 m/s, 312° | - | - |
| 1777653394 | 16.67° C | 50% | 1009.7 hPa | 0 mm | 1.79 m/s, 155° | - | - |
| 1777652551 | 17.22° C | 48% | 1010 hPa | 0 mm | 2.24 m/s, 311° | - | - |
| 1777651790 | 16.67° C | 49% | 1010.2 hPa | 0 mm | 1.34 m/s, 218° | - | - |
| 1777651181 | 16.67° C | 51% | 1010.3 hPa | 0 mm | 0.45 m/s, 8° | - | - |
| 1777650988 | 16.11° C | 51% | 1010.3 hPa | 0 mm | 2.24 m/s, 259° | - | - |
| 1777650102 | 14.44° C | 51% | 1010.3 hPa | 0 mm | 0.89 m/s, 180° | - | - |
| 1777649977 | 14.44° C | 51% | 1010.3 hPa | 0 mm | 0.89 m/s, 180° | - | - |
| 1777649797 | 14.44° C | 50% | 1010.4 hPa | 0 mm | 4.47 m/s, 48° | - | - |
| 1777649708 | 14.44° C | 50% | 1010.4 hPa | 0 mm | 4.47 m/s, 48° | - | - |
| 1777649676 | 14.44° C | 50% | 1010.4 hPa | 0 mm | 4.47 m/s, 48° | - | - |
| 1777649199 | 15° C | 52% | 1010.5 hPa | 0 mm | 0.45 m/s, 321° | - | - |
| 1777649075 | 15° C | 52% | 1010.5 hPa | 0 mm | 0.45 m/s, 321° | - | - |
| 1777648615 | 15° C | 51% | 1010.7 hPa | 0 mm | 0 m/s | - | - |
| 1777648464 | 15° C | 51% | 1010.7 hPa | 0 mm | 0 m/s | - | - |
| 1777648323 | 15° C | 53% | 1010.7 hPa | 0 mm | 1.34 m/s, 198° | - | - |
| 1777648165 | 15° C | 53% | 1010.7 hPa | 0 mm | 1.34 m/s, 198° | - | - |
* Rain latest hour (hover to see other rain measurements)
** Current wind speed in m/s (hover to see current wind gust speed)